Flag Weather past 2 weeks in Bernau bei Berlin, Brandenburg, Germany

Now
45 °F

Light rain. Overcast.


Feels Like: 43 °F
Forecast: 39 / 44 °F
Wind: 3 mph from Southwest

Location: Berlin-Tegel

Current Time: Nov 24, 2014 at 10:48:17 AM

Latest Report: Nov 24, 2014 at 10:00 AM


Visibility: 7 mi

Pressure: 30.12 "Hg

Humidity: 84%

Dew point: 40 °F

Location of Bernau bei BerlinLocation

Historic Weather in Bernau bei Berlin — Graph

°F

Bernau bei Berlin temperature yesterday

Maximum temperature yesterday: 47 °F (at 2:00 PM)
Minimum temperature yesterday: 39 °F (at 6:00 AM)
Average temperature yesterday: 43 °F

Past Weeks' High & Low Weather Summary

 TemperatureHumidityPressure
High53 °F (Nov 14, 12:00 PM)100% (Nov 11, 7:00 AM)30.37 "Hg (Nov 11, 7:00 AM)
Low39 °F (Nov 19, 8:00 AM)71% (Nov 22, 11:00 AM)29.59 "Hg (Nov 16, 2:00 PM)
Average46 °F90%29.99 "Hg
* Reported Nov 9 9:00 AM — Nov 24 9:00 AM, Bernau bei Berlin, Weather by CustomWeather, © 2014

Note: Actual official high and low records may vary slightly from our data, if they occured in-between our weather recording intervals... More about our weather records

Advertising

Bernau bei Berlin weather history for previous 24 hours

 ConditionsComfort  
Time TempWeatherWind HumidityBarometerVisibility
9:00 AM
Nov 24
44 °FOvercast.3 mph81%30.11 "Hg8 mi
8:00 AM43 °FOvercast.3 mph82%30.09 "Hg14 mi
7:00 AM42 °FOvercast.5 mph84%30.06 "Hg19 mi
6:00 AM42 °FOvercast.6 mph85%30.05 "Hg19 mi
5:00 AM42 °FPassing clouds.5 mph85%30.07 "Hg19 mi
4:00 AM42 °FClear.7 mph85%30.08 "Hg19 mi
3:00 AM42 °FClear.6 mph86%30.10 "Hg19 mi
2:00 AM42 °FClear.6 mph86%30.12 "Hg19 mi
1:00 AM42 °FClear.7 mph86%30.12 "Hg19 mi
12:00 AM42 °FPassing clouds.6 mph87%30.15 "Hg19 mi
11:00 PM
Nov 23
43 °FQuite cool.7 mph86%30.16 "HgN/A
10:00 PM43 °FClear.6 mph85%30.17 "Hg19 mi
9:00 PM44 °FClear.6 mph84%30.16 "Hg19 mi
8:00 PM45 °FPassing clouds.6 mph83%30.18 "Hg19 mi
7:00 PM45 °FPassing clouds.5 mph83%30.19 "Hg16 mi
6:00 PM45 °FPassing clouds.6 mph82%30.19 "Hg14 mi
5:00 PM45 °FPassing clouds.6 mph81%30.20 "Hg14 mi
4:00 PM46 °FScattered clouds.6 mph76%30.21 "Hg9 mi
3:00 PM47 °FScattered clouds.5 mph72%30.22 "Hg9 mi
2:00 PM47 °FScattered clouds.6 mph71%30.22 "Hg9 mi
1:00 PM46 °FScattered clouds.6 mph72%30.24 "Hg9 mi
12:00 PM45 °FScattered clouds.3 mph75%30.27 "Hg7 mi
11:00 AM42 °FPartly sunny.6 mph81%30.27 "Hg7 mi
10:00 AM42 °FPartly sunny.5 mph84%30.27 "Hg6 mi
Weather by CustomWeather, © 2014

See weather overviewHow to use our weather pages